| time (UTC) | temp F | wind direction | speed MPH | gust MPH | rain 1hr in | rain 24hr in | rain mn in | humidity % | barometer mb |
| 20260504043050 | 59 | 0 | 1.0 | 8.0 | 0.00 | 0.00 | 0.00 | 56 | 1020.3 |
| 20260504041553 | 59 | 256 | 1.0 | 9.0 | 0.00 | 0.00 | 0.00 | 55 | 1020.2 |
| 20260504040049 | 60 | 235 | 2.0 | 9.0 | 0.00 | 0.00 | 0.00 | 53 | 1020.5 |
| 20260504034549 | 59 | 236 | 2.0 | 7.0 | 0.00 | 0.00 | 0.00 | 53 | 1020.4 |
| 20260504033054 | 59 | 211 | 2.0 | 8.0 | 0.00 | 0.00 | 0.00 | 52 | 1020.4 |
| 20260504031555 | 60 | 240 | 2.0 | 9.0 | 0.00 | 0.00 | 0.00 | 52 | 1020.3 |
| 20260504030050 | 60 | 255 | 2.0 | 6.0 | 0.00 | 0.00 | 0.00 | 51 | 1020.2 |
| 20260504024557 | 60 | 224 | 1.0 | 6.0 | 0.00 | 0.00 | 0.00 | 51 | 1020.4 |
| 20260504023046 | 60 | 253 | 2.0 | 5.0 | 0.00 | 0.00 | 0.00 | 51 | 1020.0 |
| 20260504021552 | 60 | 221 | 1.0 | 5.0 | 0.00 | 0.00 | 0.00 | 53 | 1019.9 |
| 20260504020050 | 59 | 0 | 1.0 | 6.0 | 0.00 | 0.00 | 0.00 | 57 | 1019.7 |
| 20260504014549 | 58 | 0 | 0.0 | 1.0 | 0.00 | 0.00 | 0.00 | 58 | 1019.6 |
| 20260504013103 | 58 | 0 | 0.0 | 0.0 | 0.00 | 0.00 | 0.00 | 57 | 1019.3 |
| 20260504011548 | 58 | 0 | 0.0 | 0.0 | 0.00 | 0.00 | 0.00 | 57 | 1019.4 |
| 20260504010052 | 59 | 0 | 0.0 | 0.0 | 0.00 | 0.00 | 0.00 | 56 | 1019.2 |
| 20260504004606 | 59 | 0 | 0.0 | 0.0 | 0.00 | 0.00 | 0.00 | 54 | 1019.1 |
| 20260504003046 | 60 | 0 | 0.0 | 1.0 | 0.00 | 0.00 | 0.00 | 54 | 1018.9 |
| 20260504001548 | 62 | 0 | 0.0 | 2.0 | 0.00 | 0.00 | 0.00 | 50 | 1018.8 |
| 20260504000054 | 64 | 0 | 0.0 | 3.0 | 0.00 | 0.00 | 0.00 | 48 | 1018.7 |
| 20260503234552 | 65 | 211 | 0.0 | 5.0 | 0.00 | 0.00 | 0.00 | 44 | 1018.6 |
| 20260503233050 | 67 | 0 | 1.0 | 6.0 | 0.00 | 0.00 | 0.00 | 43 | 1018.6 |
| 20260503231554 | 68 | 269 | 1.0 | 6.0 | 0.00 | 0.00 | 0.00 | 41 | 1018.7 |
| 20260503230052 | 68 | 0 | 0.0 | 6.0 | 0.00 | 0.00 | 0.00 | 40 | 1018.7 |
| 20260503224549 | 69 | 202 | 3.0 | 11.0 | 0.00 | 0.00 | 0.00 | 38 | 1018.9 |
| 20260503223053 | 69 | 213 | 1.0 | 8.0 | 0.00 | 0.00 | 0.00 | 40 | 1018.8 |
| 20260503221554 | 69 | 265 | 1.0 | 11.0 | 0.00 | 0.00 | 0.00 | 39 | 1018.9 |
| 20260503220059 | 69 | 0 | 3.0 | 9.0 | 0.00 | 0.00 | 0.00 | 38 | 1019.0 |
| 20260503214550 | 69 | 254 | 3.0 | 11.0 | 0.00 | 0.00 | 0.00 | 37 | 1019.1 |
| 20260503213053 | 69 | 251 | 4.0 | 9.0 | 0.00 | 0.00 | 0.00 | 37 | 1019.2 |
| 20260503211553 | 68 | 262 | 3.0 | 10.0 | 0.00 | 0.00 | 0.00 | 37 | 1019.4 |
| 20260503210047 | 68 | 283 | 2.0 | 10.0 | 0.00 | 0.00 | 0.00 | 37 | 1019.6 |
| 20260503204552 | 69 | 232 | 3.0 | 7.0 | 0.00 | 0.00 | 0.00 | 36 | 1019.7 |
| 20260503203050 | 68 | 0 | 2.0 | 9.0 | 0.00 | 0.00 | 0.00 | 41 | 1019.9 |
| 20260503201553 | 68 | 259 | 3.0 | 10.0 | 0.00 | 0.00 | 0.00 | 39 | 1020.3 |
| 20260503200049 | 68 | 323 | 2.0 | 9.0 | 0.00 | 0.00 | 0.00 | 40 | 1020.5 |
| 20260503194552 | 68 | 138 | 4.0 | 10.0 | 0.00 | 0.00 | 0.00 | 42 | 1020.8 |
| 20260503193056 | 67 | 67 | 4.0 | 9.0 | 0.00 | 0.00 | 0.00 | 45 | 1021.1 |
| 20260503191553 | 67 | 205 | 2.0 | 12.0 | 0.00 | 0.00 | 0.00 | 44 | 1021.5 |
| 20260503190052 | 67 | 242 | 3.0 | 12.0 | 0.00 | 0.00 | 0.00 | 50 | 1021.7 |
| 20260503184601 | 66 | 96 | 0.0 | 8.0 | 0.00 | 0.00 | 0.00 | 49 | 1021.7 |
| 20260503183048 | 65 | 277 | 2.0 | 9.0 | 0.00 | 0.00 | 0.00 | 51 | 1022.0 |
| 20260503181548 | 64 | 304 | 2.0 | 10.0 | 0.00 | 0.00 | 0.00 | 50 | 1022.1 |
| 20260503180049 | 63 | 270 | 5.0 | 10.0 | 0.00 | 0.00 | 0.00 | 52 | 1022.2 |
| 20260503174605 | 63 | 230 | 4.0 | 14.0 | 0.00 | 0.00 | 0.00 | 52 | 1022.3 |
| 20260503173049 | 63 | 151 | 4.0 | 11.0 | 0.00 | 0.00 | 0.00 | 52 | 1022.4 |
| 20260503171547 | 63 | 227 | 3.0 | 11.0 | 0.00 | 0.00 | 0.00 | 50 | 1022.7 |
| 20260503100106 | 42 | 0 | 0.0 | 0.0 | 0.00 | 0.00 | 0.00 | 96 | 1021.4 |
| 20260503081556 | 43 | 0 | 0.0 | 0.0 | 0.00 | 0.00 | 0.00 | 96 | 1020.6 |
| 20260503071554 | 45 | 0 | 0.0 | 0.0 | 0.00 | 0.00 | 0.00 | 96 | 1020.0 |
| 20260503054549 | 47 | 0 | 0.0 | 0.0 | 0.00 | 0.00 | 0.00 | 96 | 1019.5 |
| 20260503053047 | 47 | 0 | 0.0 | 0.0 | 0.00 | 0.00 | 0.00 | 96 | 1019.6 |
| 20260503051549 | 48 | 0 | 0.0 | 0.0 | 0.00 | 0.00 | 0.00 | 96 | 1019.5 |
| 20260503050046 | 48 | 0 | 0.0 | 0.0 | 0.00 | 0.00 | 0.00 | 96 | 1019.6 |
| 20260503044556 | 49 | 0 | 0.0 | 0.0 | 0.00 | 0.00 | 0.00 | 96 | 1019.5 |